Home > Weather > Teresina > Past weeks

Flag for Brazil Past Weather in Teresina, Piauí, Brazil — Yesterday and Last 2 Weeks

Now
75 °F

Sunny.


Feels Like: 77 °F
Forecast: 75 / 95 °F
Wind: 3 mph from Southeast

Location: Teresina Aeroporto

Current Time: Jul 31, 2016 at 6:52:26 AM

Latest Report: Jul 31, 2016 at 6:00 AM


Visibility: 10 mi

Pressure: 29.92 "Hg

Humidity: 61%

Dew Point: 61 °F

Location of TeresinaLocation

Past Weather in Teresina — Graph

°F

Teresina Temperature Yesterday

Maximum temperature yesterday: 97 °F (at 3:00 PM)
Minimum temperature yesterday: 75 °F (at 6:00 AM)
Average temperature yesterday: 85 °F

High & Low Weather Summary for the Past Weeks

 TemperatureHumidityPressure
High99 °F (Jul 22, 3:00 PM)89% (Jul 18, 4:00 AM)30.01 "Hg (Jul 18, 4:00 AM)
Low68 °F (Jul 23, 6:00 AM)16% (Jul 22, 4:00 PM)29.80 "Hg (Jul 16, 4:00 PM)
Average83 °F51%29.90 "Hg
* Reported Jul 16 5:00 AM — Jul 31 5:00 AM, Teresina, Weather by CustomWeather, © 2016

Note: Actual official high and low records may vary slightly from our data, if they occured in-between our weather recording intervals... More about our weather records

Advertising

Teresina Weather History for the Previous 24 Hours

Scroll right to see more
 ConditionsComfort  
Time TempWeatherWind HumidityBarometerVisibility
5:00 AM
Sun, Jul 31
75 °FClear.3 mph57%29.89 "Hg10 mi
4:00 AM77 °FClear.6 mph51%29.89 "Hg10 mi
3:00 AM79 °FClear.5 mph45%29.89 "Hg10 mi
2:00 AM79 °FClear.5 mph45%29.89 "Hg10 mi
1:00 AM79 °FClear.7 mph45%29.89 "Hg10 mi
12:00 AM79 °FClear.3 mph48%29.92 "Hg10 mi
11:00 PM
Sat, Jul 30
82 °FClear.5 mph37%29.92 "Hg10 mi
10:00 PM82 °FClear.7 mph37%29.92 "Hg10 mi
9:00 PM81 °FClear.7 mph39%29.89 "Hg10 mi
8:00 PM84 °FClear.5 mph35%29.86 "Hg10 mi
7:00 PM88 °FClear.3 mph27%29.86 "Hg10 mi
6:00 PM93 °FClear.6 mph21%29.83 "Hg10 mi
5:00 PM95 °FSunny.8 mph22%29.83 "Hg10 mi
4:00 PM97 °FSunny.12 mph20%29.83 "Hg10 mi
3:00 PM97 °FSunny.9 mph20%29.83 "Hg10 mi
2:00 PM93 °FSunny.8 mph23%29.86 "Hg10 mi
1:00 PM91 °FSunny.10 mph26%29.89 "Hg10 mi
12:00 PM91 °FSunny.12 mph30%29.92 "Hg10 mi
11:00 AM90 °FSunny.12 mph31%29.95 "Hg10 mi
10:00 AM86 °FSunny.12 mph33%29.98 "Hg10 mi
9:00 AM84 °FSunny.12 mph37%29.98 "Hg10 mi
8:00 AM79 °FSunny.10 mph42%29.98 "Hg10 mi
7:00 AM77 °FSunny.8 mph44%29.95 "Hg10 mi
6:00 AM75 °FSunny.9 mph50%29.92 "Hg10 mi
Weather by CustomWeather, © 2016

See weather overviewHow to use our weather pages